TimeMDT,TemperatureF,Dew PointF,Humidity,Sea Level PressureIn,VisibilityMPH,Wind Direction,Wind SpeedMPH,Gust SpeedMPH,PrecipitationIn,Events,Conditions,WindDirDegrees,DateUTC
12:53 AM,42.1,18.0,38,30.19,10.0,South,3.5,-,N/A,,Clear,170,2012-10-06 06:53:00
1:53 AM,39.9,18.0,41,30.20,10.0,South,4.6,-,N/A,,Clear,170,2012-10-06 07:53:00
2:53 AM,39.0,19.0,45,30.22,10.0,South,6.9,-,N/A,,Clear,180,2012-10-06 08:53:00
3:53 AM,37.9,19.0,47,30.23,10.0,SSW,5.8,-,N/A,,Clear,200,2012-10-06 09:53:00
4:53 AM,41.0,17.1,38,30.23,10.0,SE,5.8,-,N/A,,Clear,130,2012-10-06 10:53:00
5:53 AM,39.9,17.1,40,30.25,10.0,SE,8.1,-,N/A,,Clear,130,2012-10-06 11:53:00
6:53 AM,37.0,17.1,44,30.27,10.0,SE,9.2,-,N/A,,Clear,140,2012-10-06 12:53:00
7:53 AM,37.9,17.1,43,30.29,10.0,SE,12.7,-,N/A,,Clear,140,2012-10-06 13:53:00
8:53 AM,39.0,17.1,41,30.31,10.0,SSE,6.9,-,N/A,,Clear,150,2012-10-06 14:53:00
9:53 AM,46.0,17.1,31,30.31,10.0,SSE,15.0,-,N/A,,Clear,150,2012-10-06 15:53:00
10:53 AM,50.0,17.1,27,30.31,10.0,SE,10.4,-,N/A,,Clear,140,2012-10-06 16:53:00
11:53 AM,54.0,16.0,22,30.30,10.0,ESE,8.1,-,N/A,,Clear,110,2012-10-06 17:53:00
12:53 PM,57.0,15.1,19,30.27,10.0,SSE,6.9,-,N/A,,Clear,150,2012-10-06 18:53:00
1:53 PM,59.0,15.1,18,30.24,10.0,SSE,9.2,-,N/A,,Clear,160,2012-10-06 19:53:00
2:53 PM,60.1,14.0,16,30.21,10.0,Variable,3.5,-,N/A,,Clear,0,2012-10-06 20:53:00
3:53 PM,61.0,16.0,17,30.19,10.0,NNE,3.5,-,N/A,,Clear,30,2012-10-06 21:53:00
4:53 PM,61.0,17.1,18,30.17,10.0,NW,10.4,-,N/A,,Clear,320,2012-10-06 22:53:00
5:53 PM,61.0,17.1,18,30.16,10.0,NW,9.2,-,N/A,,Clear,310,2012-10-06 23:53:00
6:53 PM,57.9,18.0,21,30.17,10.0,NNW,6.9,-,N/A,,Clear,340,2012-10-07 00:53:00
7:53 PM,53.1,19.9,27,30.17,10.0,NNW,4.6,-,N/A,,Clear,330,2012-10-07 01:53:00
8:53 PM,52.0,21.0,30,30.17,10.0,Calm,Calm,-,N/A,,Clear,0,2012-10-07 02:53:00
9:53 PM,46.9,19.9,34,30.18,10.0,SSE,3.5,-,N/A,,Clear,160,2012-10-07 03:53:00
10:53 PM,43.0,18.0,37,30.18,10.0,ESE,4.6,-,N/A,,Clear,120,2012-10-07 04:53:00
11:53 PM,44.1,19.0,37,30.18,10.0,ESE,8.1,-,N/A,,Clear,120,2012-10-07 05:53:00